sat.trackr.live / text

‹ back to catalog

STARLINK-35339

NORAD 66028 · 2025-232Z

PAYLOAD ACTIVE UNKNOWN

§ Identity

Operator
Country
US
Launch date
2025-10-16
Launch site
AFETR
Launch vehicle
Mass (kg)
RCS (m²)

Purposes: comms

External: N2YO · Heavens-Above · Gunter

§ Orbital elements

Epoch: 2026-09-20T05:16:30.160992Z

Period
93.85 min
Inclination
53.1588°
Eccentricity
0.0001035
Mean motion
15.34385534 rev/d
Perigee alt
462.0 km
Apogee alt
463.5 km
Semi-major
6,840.9 km
B*
3.2730e-4
RAAN
277.1606°
Arg perigee
36.8970°
Mean anomaly
323.2103°
Rev number
5,326

§ Raw data

STARLINK-353391 66028U 25232Z   26263.21979353  .00010693  00000+0  32730-3 0  99902 66028  53.1588 277.1606 0001035  36.8970 323.2103 15.34385534 53266

JSON: /api/v1/satellites/66028 · /tle

For live sub-satellite position, see the globe view (requires WebGL).

§ Visibility from observer

Set your observer location to see the next 7 days of passes ≥ 10°. The values pass through the URL so the page stays shareable.

No JS? Fill the form by hand. The geolocation button needs JavaScript.